Wind_Speed
63 63 61 56 53 52 53 52 50 47 44 37 31 30 22 14 12 14 14 17 20 20 22 22 24 29 31 29 23 22 21 17 17 18 22 21 20 17 16 15 13 15 18 16
69 69 66 64 61 58 57 59 58 53 50 46 41 37 36 30 29 30 30 26 25 24 21 25 32 34 32 28 22 20 17 16 13 15 17 20 17 16 14 14 13 14 14 14
74 74 72 69 68 66 64 61 61 60 58 56 50 45 43 41 39 37 34 34 34 33 33 29 32 35 30 28 24 18 18 14 11 10 12 14 15 14 13 11 11 11 12 11
75 77 78 77 74 72 72 68 67 66 64 61 55 54 52 48 46 44 42 39 38 37 35 34 34 33 29 27 27 18 16 14 12 6 6 7 9 11 11 9 9 10 9 7
79 78 77 80 81 80 79 76 74 73 72 69 65 60 59 53 52 51 49 46 46 42 39 38 37 35 31 27 25 17 16 14 13 9 6 4 3 4 6 8 7 7 8 6
84 83 83 83 83 83 84 85 83 82 78 72 73 66 66 62 61 57 55 56 53 47 47 43 40 38 32 27 24 18 15 16 15 12 9 8 4 3 1 1 2 5 5 6
79 82 84 86 86 86 86 86 88 87 84 79 78 71 69 71 70 65 61 59 58 55 54 50 45 38 33 29 24 23 17 17 18 17 13 12 12 9 8 6 4 2 1 1
79 80 81 82 86 88 88 87 92 91 87 83 83 77 74 77 77 76 70 66 64 62 58 55 46 39 33 29 27 26 24 21 20 20 18 16 16 15 14 11 11 8 6 4
77 80 80 81 83 83 85 83 86 89 89 87 84 81 79 80 82 82 76 71 67 63 58 55 48 43 40 33 30 30 30 28 25 24 24 20 19 21 22 20 18 15 14 11
79 80 82 83 83 81 82 83 82 83 83 83 82 82 82 88 86 81 79 75 71 68 64 59 55 51 47 43 38 33 35 33 30 29 30 26 22 23 24 22 23 20 20 20
78 78 82 86 83 84 83 84 85 87 84 82 79 74 79 85 88 85 83 82 75 72 70 67 63 58 54 50 45 39 37 38 36 36 33 31 28 24 25 24 23 24 21 18
79 78 77 81 84 85 87 86 86 87 87 84 80 73 77 78 83 83 81 82 82 78 74 70 68 64 61 58 51 46 43 40 39 38 38 36 33 30 29 28 26 26 28 27
84 84 82 85 88 86 86 87 87 86 87 89 85 74 78 77 76 82 80 78 81 82 82 76 70 66 65 60 56 50 47 46 39 40 40 39 36 36 32 29 27 26 28 28
81 80 81 81 86 87 87 90 91 92 90 89 85 79 76 79 77 80 82 77 76 79 82 81 76 71 66 62 58 53 49 47 43 40 41 39 39 38 35 31 29 29 27 27
79 78 79 79 78 85 87 89 90 94 95 90 86 81 80 78 78 81 85 81 77 77 77 81 80 75 71 65 61 55 49 48 44 40 42 41 38 36 37 36 33 32 31 29
72 75 78 78 82 84 84 85 92 95 92 88 86 80 82 78 78 82 85 87 81 76 75 74 78 79 76 70 62 57 52 47 46 42 41 39 35 37 37 37 35 34 35 33
70 73 77 78 84 83 82 88 91 93 93 90 86 83 80 79 77 79 85 87 84 77 72 67 74 80 78 73 68 58 50 48 48 46 43 40 38 37 33 32 33 35 35 33
76 78 79 79 84 81 83 88 90 90 88 88 86 83 80 76 75 74 80 87 83 78 72 57 72 81 81 77 67 59 51 48 47 47 43 37 37 34 32 32 33 35 36 33
81 82 84 84 86 82 86 94 94 93 83 87 87 84 78 72 73 68 72 83 84 82 83 76 73 81 81 80 67 63 57 51 44 45 45 40 42 43 31 35 38 35 32 33
81 84 88 90 89 86 92 96 98 95 79 92 85 80 75 71 73 67 72 81 84 80 89 86 74 79 81 80 71 67 62 43 55 48 48 45 45 48 43 35 36 39 42 41
72 75 78 81 82 79 86 88 89 83 76 81 77 76 72 69 66 63 67 70 82 80 90 95 88 83 80 83 73 69 69 69 58 55 53 48 53 53 49 44 50 51 47 44
73 73 74 74 78 76 79 82 83 77 75 73 63 63 63 60 58 59 61 67 72 84 88 95 91 90 84 81 77 77 73 69 59 61 68 50 46 51 55 57 60 54 58 51
65 65 66 66 66 63 63 66 69 68 66 67 63 60 61 61 64 58 63 72 76 85 91 97 94 91 90 86 84 85 81 73 71 76 74 61 61 69 64 61 57 58 56 53
48 46 44 47 49 46 45 45 46 44 45 44 46 48 52 59 64 52 40 49 77 76 88 96 98 92 88 92 88 90 89 86 85 80 82 77 66 63 67 57 57 63 64 64
33 32 35 34 36 34 33 31 30 30 30 32 39 45 52 57 61 59 47 44 46 70 88 91 97 96 91 91 95 97 98 94 90 79 82 64 72 73 76 80 77 67 76 77
25 23 22 24 22 20 20 19 18 24 27 39 56 60 59 68 68 66 50 60 72 67 86 96 96 99 93 93 92 96 98 102 99 101 89 84 77 76 83 88 85 86 88 89
Wind_Direction
238 238 235 234 234 230 236 242 235 239 244 244 245 250 248 257 273 286 289 301 309 321 329 329 333 339 344 358 359 2 11 24 28 34 37 35 44 44 51 56 67 79 93 100
238 241 239 238 235 234 232 239 243 240 242 244 247 249 254 255 259 269 276 284 289 300 306 311 314 321 332 348 347 349 356 13 21 25 33 36 35 47 49 62 68 76 86 97
240 240 241 241 240 240 237 236 241 244 247 244 246 250 252 256 260 265 267 274 279 287 291 296 301 310 321 335 338 338 341 354 13 18 32 38 31 34 51 58 65 74 85 89
243 242 242 241 242 243 243 242 241 244 247 249 247 250 251 254 258 262 264 266 272 277 282 289 295 302 310 323 325 325 320 331 350 358 7 35 41 34 36 50 56 63 76 82
246 245 245 245 243 241 244 244 244 244 245 248 250 251 253 253 255 257 261 261 265 270 274 280 289 294 300 308 312 309 307 312 324 330 299 334 359 56 45 41 46 54 54 56
247 246 246 246 246 245 243 243 244 245 247 248 249 250 254 254 253 253 256 262 265 270 275 277 280 283 288 291 297 294 293 296 300 308 295 265 266 255 130 47 60 59 50 43
250 250 249 248 247 246 245 246 245 244 246 246 248 248 253 253 253 253 253 255 261 265 270 271 273 272 276 278 280 287 281 280 286 287 289 273 253 254 252 236 238 242 160 54
250 250 251 251 250 250 248 245 247 246 245 245 247 248 246 251 251 252 251 252 256 259 263 265 266 265 263 267 268 274 276 270 273 276 276 273 255 241 240 249 255 252 253 269
250 250 251 252 251 251 251 250 249 250 248 246 246 244 247 248 247 250 252 252 254 257 258 258 259 259 260 257 262 268 269 269 267 269 267 270 269 251 244 244 249 251 257 269
250 253 252 252 252 253 254 253 251 251 250 249 245 244 245 250 247 247 251 251 251 251 253 254 255 255 256 257 255 262 267 266 265 264 266 265 265 266 258 254 252 254 261 268
252 252 255 254 252 252 252 253 253 252 250 249 248 245 244 246 248 246 246 248 248 250 251 252 253 255 257 256 258 257 262 266 265 264 264 264 262 262 260 256 248 250 245 253
252 252 253 257 256 254 252 251 253 254 253 251 247 246 246 245 248 249 246 246 246 246 247 249 252 252 252 254 253 255 257 260 264 264 263 262 259 256 256 259 260 249 251 249
250 251 251 253 255 255 255 255 253 251 253 255 250 245 246 245 244 248 246 244 244 245 246 245 247 249 250 252 255 256 256 257 257 259 259 260 257 253 254 257 261 259 255 253
251 253 253 253 255 256 256 255 255 254 252 250 253 250 246 245 243 244 247 243 241 242 245 244 244 245 248 251 252 253 251 253 251 252 255 256 257 257 255 259 261 260 260 258
250 249 251 252 252 254 255 256 255 256 255 252 251 250 249 245 244 242 245 244 240 240 239 240 242 242 243 245 248 251 251 251 250 245 246 248 252 254 253 256 262 266 268 265
252 250 250 251 252 251 253 256 257 257 255 254 253 250 250 245 240 242 242 243 240 238 240 238 239 240 241 242 244 248 247 247 248 250 246 249 251 251 254 261 261 266 270 272
254 251 250 250 252 252 251 251 253 255 256 254 253 249 246 246 241 238 241 242 241 236 235 234 236 238 237 240 241 242 242 244 244 245 243 242 254 255 250 255 264 270 270 271
257 255 254 253 255 256 256 256 254 253 255 257 254 251 248 246 244 237 236 240 237 235 226 225 232 233 233 235 235 237 234 237 236 241 244 243 241 242 243 253 255 261 265 265
263 263 262 260 256 254 256 257 257 256 255 254 253 251 249 245 244 237 232 236 235 230 229 224 228 231 230 231 229 233 232 231 236 238 240 239 239 239 246 262 263 256 253 254
264 265 265 266 265 263 262 260 260 257 253 255 255 253 249 243 242 235 228 228 232 227 224 223 221 225 227 227 225 226 225 242 238 231 231 241 243 236 243 251 259 255 250 257
267 265 264 265 265 262 260 261 260 260 254 252 249 248 247 243 239 235 231 227 228 225 227 227 223 223 222 225 220 221 221 219 222 233 238 245 251 244 236 259 260 253 250 247
272 271 270 268 266 262 261 261 261 259 255 252 247 240 239 237 236 236 232 227 230 227 225 225 225 226 222 221 218 220 222 217 218 217 234 233 250 238 233 250 239 241 253 241
276 274 272 272 273 270 264 260 258 257 255 250 244 237 234 232 227 214 229 230 227 228 226 223 222 221 220 220 216 219 216 211 224 223 228 228 224 240 235 245 242 240 234 237
280 279 277 274 272 270 267 262 256 250 245 238 231 221 215 202 209 199 203 224 223 223 228 227 224 221 220 218 215 217 216 212 221 223 226 230 233 233 232 234 233 239 236 243
285 282 278 278 276 273 266 260 250 239 227 212 196 195 198 197 197 160 168 214 225 220 222 220 222 221 220 219 215 217 219 216 220 230 218 222 226 233 230 234 242 232 244 240
295 288 282 278 279 273 264 252 239 219 194 177 170 173 185 173 165 166 188 207 213 220 226 222 221 223 221 219 217 218 218 218 221 221 225 222 226 228 232 232 233 238 237 242
Height
10963 10966 10974 10981 10986 10990 10990 10992 10998 11003 11005 11009 11014 11015 11016 11017 11020 11020 11022 11023 11023 11023 11025 11025 11024 11024 11024 11022 11020 11018 11016 11015 11013 11011 11009 11008 11007 11007 11007 11006 11006 11005 11003 11005
10953 10954 10963 10969 10975 10979 10982 10983 10989 10995 10997 11001 11006 11010 11011 11013 11015 11018 11018 11020 11021 11021 11022 11024 11024 11023 11024 11024 11021 11020 11017 11016 11015 11013 11012 11011 11011 11010 11010 11009 11009 11009 11008 11008
10940 10943 10948 10956 10961 10966 10971 10977 10979 10983 10985 10991 11000 11001 11005 11007 11009 11012 11014 11015 11018 11019 11018 11022 11023 11022 11023 11022 11021 11018 11017 11016 11015 11014 11014 11013 11013 11013 11012 11012 11012 11012 11011 11012
10924 10928 10933 10940 10947 10952 10956 10964 10968 10970 10974 10980 10989 10991 10994 11000 11004 11004 11007 11010 11011 11013 11016 11017 11020 11021 11021 11020 11020 11018 11017 11015 11015 11015 11016 11014 11014 11014 11014 11014 11014 11014 11014 11014
10907 10912 10918 10924 10930 10938 10943 10949 10953 10957 10962 10970 10976 10983 10985 10993 10994 10996 10997 11000 11003 11008 11011 11014 11015 11017 11019 11018 11018 11017 11016 11015 11014 11014 11015 11015 11015 11015 11016 11016 11015 11015 11016 11016
10889 10893 10899 10904 10910 10918 10928 10930 10938 10942 10951 10963 10962 10975 10976 10980 10981 10987 10991 10992 10997 11001 11004 11009 11011 11012 11015 11016 11016 11016 11015 11014 11013 11013 11014 11015 11015 11015 11015 11016 11016 11016 11016 11017
10872 10874 10879 10886 10890 10897 10907 10911 10918 10928 10937 10949 10949 10965 10964 10966 10968 10975 10981 10984 10987 10992 10996 11001 11004 11007 11009 11010 11012 11013 11013 11013 11011 11011 11012 11012 11013 11013 11014 11014 11015 11015 11016 11016
10853 10857 10862 10866 10868 10875 10884 10895 10896 10909 10920 10929 10937 10951 10955 10948 10953 10956 10967 10973 10978 10982 10986 10990 10996 10999 11002 11004 11006 11007 11008 11009 11010 11009 11009 11010 11010 11011 11012 11012 11013 11013 11013 11014
10835 10837 10843 10845 10850 10857 10863 10874 10880 10886 10898 10910 10922 10932 10931 10927 10934 10938 10952 10964 10970 10971 10975 10979 10986 10990 10994 10997 10998 11001 11001 11003 11004 11005 11005 11005 11006 11006 11008 11009 11010 11010 11010 11011
10820 10822 10826 10826 10834 10841 10844 10852 10860 10865 10874 10884 10900 10913 10917 10905 10914 10930 10937 10947 10954 10959 10963 10967 10972 10978 10983 10987 10991 10994 10994 10996 10997 10999 10999 11001 11000 11001 11001 11003 11005 11006 11006 11007
10803 10808 10802 10805 10816 10819 10826 10830 10835 10839 10852 10864 10876 10892 10893 10889 10895 10909 10918 10923 10934 10943 10950 10954 10960 10967 10973 10977 10982 10986 10987 10988 10989 10991 10993 10993 10994 10995 10995 10995 10997 10998 11000 11001
10782 10788 10791 10782 10788 10795 10802 10811 10814 10818 10826 10838 10853 10872 10867 10873 10878 10888 10902 10910 10917 10923 10930 10941 10947 10955 10958 10963 10969 10973 10976 10979 10981 10983 10984 10986 10987 10987 10988 10989 10990 10992 10993 10995
10761 10766 10770 10767 10764 10773 10780 10784 10790 10799 10804 10809 10827 10850 10845 10852 10864 10865 10878 10889 10896 10905 10911 10922 10933 10938 10943 10950 10956 10962 10965 10967 10971 10973 10974 10975 10978 10980 10980 10983 10984 10986 10987 10988
10743 10747 10748 10751 10748 10753 10755 10761 10764 10770 10781 10789 10802 10817 10826 10830 10844 10846 10851 10868 10877 10885 10894 10903 10913 10923 10928 10936 10943 10950 10953 10955 10959 10962 10964 10966 10968 10971 10973 10975 10976 10977 10980 10981
10724 10728 10727 10728 10729 10731 10733 10736 10739 10741 10750 10769 10782 10794 10796 10812 10822 10828 10829 10841 10857 10865 10873 10884 10893 10905 10914 10921 10928 10937 10942 10946 10948 10951 10953 10955 10959 10963 10965 10967 10969 10971 10972 10974
10703 10705 10704 10706 10705 10711 10718 10717 10707 10713 10729 10745 10753 10769 10769 10784 10796 10804 10811 10816 10833 10848 10857 10866 10880 10886 10896 10907 10915 10923 10929 10934 10937 10941 10945 10947 10951 10953 10956 10958 10960 10963 10963 10965
10679 10681 10684 10688 10679 10687 10699 10687 10688 10692 10698 10711 10726 10737 10747 10755 10767 10783 10788 10795 10810 10827 10839 10851 10860 10869 10879 10890 10900 10907 10915 10922 10926 10929 10934 10939 10943 10946 10947 10949 10952 10954 10955 10958
10653 10655 10658 10664 10658 10667 10669 10662 10665 10673 10682 10686 10695 10706 10721 10733 10743 10760 10768 10772 10789 10803 10817 10825 10838 10843 10856 10868 10883 10892 10902 10908 10914 10919 10926 10932 10935 10936 10938 10939 10941 10944 10945 10947
10631 10631 10630 10630 10634 10647 10645 10632 10634 10642 10667 10657 10663 10676 10695 10712 10718 10735 10746 10750 10764 10780 10793 10802 10811 10822 10835 10849 10864 10876 10887 10895 10902 10909 10914 10921 10926 10930 10930 10931 10933 10936 10937 10938
10607 10604 10601 10600 10604 10617 10605 10601 10599 10612 10652 10625 10637 10654 10671 10684 10693 10707 10719 10724 10736 10754 10765 10774 10786 10801 10815 10829 10846 10859 10871 10878 10890 10897 10900 10907 10912 10916 10918 10921 10925 10931 10930 10928
10582 10579 10577 10573 10573 10582 10572 10570 10569 10585 10604 10602 10617 10629 10643 10659 10673 10687 10698 10712 10718 10729 10737 10751 10766 10780 10795 10809 10828 10840 10851 10860 10873 10882 10886 10891 10896 10903 10904 10911 10909 10917 10917 10916
10554 10553 10549 10548 10542 10546 10545 10545 10545 10558 10569 10576 10597 10607 10621 10638 10651 10661 10676 10683 10697 10708 10720 10731 10748 10762 10778 10787 10806 10816 10830 10842 10855 10867 10870 10878 10880 10887 10890 10895 10901 10901 10903 10904
10532 10528 10525 10522 10519 10518 10517 10518 10520 10530 10541 10550 10569 10588 10602 10615 10627 10639 10657 10663 10674 10685 10699 10707 10721 10735 10751 10768 10783 10793 10805 10819 10831 10842 10852 10857 10861 10875 10878 10878 10882 10885 10886 10888
10511 10509 10506 10501 10494 10497 10496 10496 10500 10510 10519 10534 10547 10563 10578 10591 10605 10625 10645 10648 10658 10667 10682 10695 10703 10718 10729 10744 10761 10773 10784 10795 10807 10819 10827 10836 10848 10857 10858 10860 10861 10866 10870 10870
10497 10494 10489 10488 10484 10482 10481 10482 10486 10495 10507 10521 10531 10547 10561 10582 10600 10617 10633 10642 10643 10649 10656 10666 10683 10694 10710 10722 10734 10746 10760 10773 10784 10799 10800 10812 10822 10830 10835 10837 10841 10847 10848 10849
10485 10482 10478 10477 10474 10472 10472 10474 10478 10487 10500 10511 10525 10539 10558 10579 10588 10600 10602 10608 10611 10625 10634 10648 10657 10671 10690 10702 10714 10726 10738 10748 10758 10766 10779 10790 10799 10805 10810 10809 10814 10821 10824 10829